{"data":{"norad_id":59435,"epoch":"2026-05-25T03:00:37.882080Z","epoch_age_seconds":54305,"freshness":"FRESH","line1":"1 59435U 24065Q   26145.12543845  .00000837  00000+0  40386-4 0  9995","line2":"2 59435  53.1613 286.5257 0001176  87.1594 272.9542 15.30197078120635","mean_motion":15.30197078,"eccentricity":0.0001176,"inclination_deg":53.1613,"raan_deg":286.5257,"arg_perigee_deg":87.1594,"mean_anomaly_deg":272.9542,"bstar":4.0386e-5,"rev_number":12063,"period_min":94.105525406055,"perigee_km":474.41783876914,"apogee_km":476.02974922789,"semimajor_km":6853.3607939985,"source":"CELESTRAK","updated_at":"2026-05-25T13:38:18.946698Z"}}